Погода в Бахте

Погода в Бахте : погода сейчас, прогноз погоды и архив. Всё, что Вы хотите узнать о погоде в Бахте!

Поиск расширенной информации на нашем сайте:

Другие новости

Новости СМИ2

Главная страница сайта

Новости сайта

03.07.2017

Напоминаем, что на нашем специализированном сайте Метеоцентр.Азия вы можете получить высокодетализированные автоматические прогнозы погоды по пунктам России, СНГ и мира в авиационном формате (включающие направление и скорость ветра, видимость, явления погоды, количество и форму облачности, нижнюю и верхнюю границу облачности).


Погода в Бахте - сегодня

Время (UTC), дата Ветер
(°,м/с) 
Видим.   Явления Облачность Т
(°С)
Тd
(°С)
f(%) Тe
(°С)
Pmin
(гПа)
dP
(гПа)
Po
(мм)
O2
(г/м3)
Тmin Tmax R s Состояние
почвы
06 18.06.18 тихо ()   20000 м    8/4 1000 м верхняя 
[Sc|Ci sp]
+21.9 +14.8 64 +30  1008.6  -1.4  752  278           
09 18.06.18 тихо ()   20000 м    8/0 верхняя 
[Cu med, cong|Ci sp]
+22.7 +14.2 59 +30  1008.1  -0.5  752  277           
15 18.06.18 тихо ()   20000 м    4/0 верхняя 
[Ci]
+24 +15.8 60 +34  1006.8  -0.8  751  275           
18 18.06.18 тихо ()   20000 м    6/0 верхняя 
[Ci sp]
+20.8 +14.7 68 +29  1005.9  -0.9  750  278           
21 18.06.18 тихо ()   20000 м    8/0 верхняя 
[Ci sp]
+17.9 +13.5 75 +24  1004.6  1.4  749  281           
00 19.06.18 тихо ()   20000 м    4/0 верхняя 
[Ci sp]
+18.4 +14.1 76 +26  1004.1  0.5  749  280  +17.9         
03 19.06.18 тихо ()   20000 м    ясно 
+23.6 +14.9 58 +32  1002.6  -1.4  748  274           
06 19.06.18 110 (В) 20000 м    4/0 верхняя 
[Ci]
+30 +5.9 22 +30  1000.3  -2.2  746  270           
09 19.06.18 140 (ЮВ) 20000 м    3/0 верхняя 
[Ci fib]
+30.6 +8.2 25 +31  998.8  -1.5  745  269           
15 19.06.18 тихо ()   20000 м    6/3 2000 м средняя, верхняя 
[Ac cast|Ci fib]
+27.3 +11.5 37 +31  996.8  -0.9  744  270           
18 19.06.18 тихо ()   20000 м    8/4 2000 м средняя, верхняя 
[Ac cast|Ci sp]
+20.8 +11.9 57 +25  996.1  -0.9  743  276           
21 19.06.18 тихо ()   20000 м    4/3 2000 м средняя, верхняя 
[Ac cast|Ci fib]
+16.1 +12.7 80 +21  995.6  -0.5  742  280           
00 20.06.18 тихо ()   20000 м    8/0 верхняя 
[Ci sp]
+19.8 +13.5 67 +26  994.8  -0.8  742  276  +16.1         
03 20.06.18 140 (ЮВ) 20000 м    9/9 600 м 
[Sc]
+23.1 +15.3 61 +33  993.8  -0.9  741  272           
06 20.06.18 140 (ЮВ) 20000 м  в посл. час гроза{ливн. осадки}  8/1 600 м кучево-дожд. 
[Cb cap]
+23.2 +18.5 75 +39  993.4  -0.4  741  271           
12 20.06.18 180 (Ю) 20000 м  {гроза}  8/8 600 м 
[Cu med, cong]
+23 +9.3 42 +23  998.1  2.7  744  275    +23.6  0.8     
15 20.06.18 180 (Ю) 20000 м    3/3 600 м 
[Cu med, cong]
+20.6 +11.2 55 +24  998.5  0.3  745  277           
18 20.06.18 180 (Ю) 20000 м    3/3 600 м 
[Cu hum]
+18.2 +8.6 53 +19  998.6  0.1  745  280           
21 20.06.18 180 (Ю) 20000 м    3/0 верхняя 
[Ci sp]
+15.6 +9 65 +16  998.9  0.2  745  282           
00 21.06.18 140 (ЮВ) 20000 м    8/0 верхняя 
[Ci sp]
+15.8 +8.8 63 +17  998.7  -0.2  745  282  +15.6         
03 21.06.18 180 (Ю) 20000 м    3/1 600 м верхняя 
[Cu med, cong|Ci fib]
+19.3 +11.7 61 +24  997.6  -1  744  278           
06 21.06.18 180 (Ю) 20000 м    9/9 600 м кучево-дожд. 
[Cb cap]
+21.7 +9.7 46 +23  996  -1.5  743  276           
09 21.06.18 140 (ЮВ) 20000 м  в посл. час гроза{ливн. осадки}  8/8 600 м кучево-дожд. 
[Cb cap]
+18 +11.6 66 +23  996.4  0.3  743  279           
12 21.06.18 140 (ЮВ) 20000 м  слаб. ливневой снег{гроза}  9/9 600 м кучево-дожд. 
[Cb cap]
+18.3 +11.4 64 +22  997.2  0.8  744  279    +23.7  0.0     
15 21.06.18 тихо ()   20000 м  {ливн. осадки}  9/9 600 м кучево-дожд. 
[Cb cap]
+17.6 +12.8 73 +23  998.9  1.7  745  279           
Время (UTC), дата Ветер
(°,м/с) 
Видим.   Явления Облачность Т
(°С)
Тd
(°С)
f(%) Тe
(°С)
Pmin
(гПа)
dP
(гПа)
Po
(мм)
O2
(г/м3)
Тmin Tmax R s Состояние
почвы

Для получения пояснительной информации подведите курсор к названию столбца.

ПОГОДА в Бахте - архив

Всё, что Вы хотите узнать о погоде в Бахте - удобно и подробно!

Выберите нужную дату (начиная с 1 января 2015* года) и нажмите кнопку "Найти".
Будут отображены архивные сводки погоды по пункту Бахта, начиная с указанной даты.


Отображать данные в формате CSV (для использования в таблицах Excel)


Внимание! Наш архив погоды предназначен исключительно для личного некоммерческого использования в познавательных целях. Если Вам необходимы официальные справки о состоянии погоды (для производственных, юридических, коммерческих и т.п. целей), обращайтесь в органы Росгидромета.

*Примечание: данная дата относится к архиву по метеостанциям СССР (Россия, СНГ, Балтия).
Архив по метеостанциям Зарубежной Европы и Азии (кроме Китая) хранится 10 дней, по другим регионам земного шара (Китай, Африка, Америка, Австралия, Океания) - 1 день.

Бахта - район местоположения метеостанции


Название, широта, долгота, высота метеостанции:
Бахта 62.3°ш. 89.2°д. 58 м над ур. моря [Российская Федерация]

Дополнительная информация

В oтличие oт бoльшинства пoгoдных сайтoв мы публикуем пoдрoбную метеoинфoрмацию в детальнoм прoфессиoнальнoм фoрмате.

Характеристики температуры и влажнoсти вoздуха измеряются на высoте 2 м в тени вдали oт зданий и деревьев.
Скoрoсть ветра измеряется на высoте 10 м (на урoвне рoста челoвека скoрoсть ветра ниже в 1.5-2 раза). Если метеoстанция нахoдится в гoрoде или в лесу, тo скoрoсть ветра занижена на 2-4 м/с пo сравнению с oткрытым местoм. Скoрoсть ветра над акватoриями крупных рек и oзёр, а также на вершинах хoлмoв на 2-5 м/с выше, чем в oбычных услoвиях.
Атмoсфернoе давление в разных тoчках местнoсти мoжет значительнo oтличаться oт давления на метеoстанции, в зависимoсти oт услoвий рельефа (при пoдъёме на 10 м давление пoнижается примернo на 1 мм рт.ст.).